Location: ???
(32.9656°N, 35.5005°E)
Time: 17:10:00
(UTC+00:00)

Daily predictions for brighter satellites

Satellite Brightness Start Highest point End
(mag) Time Altitude Azimuth Time Altitude Azimuth Time Altitude Azimuth
CZ-2C R/B 4.4 17:09:43 10° NNE 17:14:07 37° E 17:18:30 10° SSE
Cosmos 1356 Rocket 4.1 17:12:21 10° N 17:16:19 37° ENE 17:20:12 10° SSE
EXPRESS MD2 4.0 17:18:54 10° WNW 17:21:51 47° SW 17:27:16 10° SSE
Cosmos 1626 2.8 17:21:53 10° SSW 17:25:30 57° W 17:29:09 10° N
Cosmos 1818 3.9 17:22:18 10° S 17:27:24 45° ESE 17:32:34 10° NE
CZ-2C R/B 4.0 17:21:54 10° S 17:27:32 56° W 17:33:01 10° NNW
SL-16 R/B 2.3 17:23:02 10° SSW 17:28:42 83° WNW 17:34:24 10° NNE
ARGOS 3.4 17:23:32 10° S 17:28:57 78° WSW 17:34:23 10° NNW
SL-08 RB Rocket 3.6 17:28:25 10° SSE 17:32:52 86° ENE 17:37:22 10° N
MetOp-A 4.3 17:28:43 10° SSE 17:33:55 56° ENE 17:39:09 10° N
Resurs 01 Rocket 2.9 17:30:33 10° ESE 17:34:02 24° ENE 17:37:33 10° NNE
CZ-2C R/B 2.6 17:30:36 10° NNE 17:35:59 82° ESE 17:41:14 10° S
USA 215 3.7 17:33:11 10° ENE 17:39:11 38° SE 17:45:10 10° SSW
ATLAS 5 CENTAUR R/B 1.4 17:38:37 10° SSW 17:42:30 52° ESE 17:46:38 10° NE
MONITOR-E 3.6 17:40:22 10° S 17:42:50 83° W 17:45:18 10° NNW
Cosmos 2150 Rocket 4.1 17:38:50 10° N 17:43:58 60° ENE 17:48:46 12° SSE
GEOS 3 Rocket 3.9 17:42:09 10° NE 17:47:21 48° ESE 17:52:30 10° SSW
Cosmos 2058 Rocket 3.3 17:43:35 10° N 17:48:04 73° W 17:52:30 10° S
USA 186 3.6 17:47:20 10° SSW 17:50:21 31° W 17:53:22 10° NNW
Cosmos 1844 Rocket 4.5 17:48:18 10° NNE 17:51:45 16° ENE 17:54:56 11° E
Cosmos 1758 Rocket 4.5 17:53:39 17° SE 17:56:23 30° E 18:00:18 10° NNE
Ariane Rocket 4.1 17:52:15 10° S 17:57:05 44° W 18:01:56 10° NNW
Cosmos 1626 Rocket 3.7 17:53:32 10° S 17:57:57 81° W 18:02:26 10° N
Meteor 2-10 Rocket 4.3 17:53:30 10° NNE 17:58:13 35° ENE 18:01:20 19° SE
Cosmos 1745 Rocket 4.1 17:52:25 10° SSE 17:58:23 54° E 18:04:25 10° NNE
OAO 3 Rocket 3.5 17:59:10 10° W 18:04:02 69° N 18:08:25 13° E
Resurs 1-3 3.6 18:05:44 14° S 18:09:27 83° WSW 18:13:52 10° NNW
Meteor 1-21 Rocket 4.3 18:03:51 10° S 18:09:41 77° E 18:15:37 10° NNE
H-2A R/B 4.4 18:06:54 10° SW 18:11:05 23° W 18:15:18 10° NW
Cosmos 1125 Rocket 3.5 18:09:13 10° NNW 18:14:28 72° ENE 18:17:45 23° SSE
SL-08 ROCKET BODY 4.3 18:08:58 10° S 18:14:50 77° E 18:20:50 10° N
BREEZE M DEB (TANK) 3.6 18:12:59 20° SSE 18:14:56 33° ESE 18:22:39 10° ENE
Cosmos 2322 Rocket 3.7 18:10:58 10° SW 18:16:08 38° WNW 18:21:21 10° N
SPOT 3 Rocket 3.8 18:13:47 13° S 18:18:27 69° WSW 18:23:40 10° NNW
OAO 2 Rocket 3.5 18:20:31 10° W 18:25:49 80° N 18:30:36 13° ENE
Cosmos 1328 3.9 18:26:16 37° SSE 18:27:29 54° E 18:31:22 10° NNE
Cosmos 1825 Rocket 3.5 18:33:11 32° S 18:35:09 71° E 18:39:35 10° N
COSMOS 2428 3.0 18:33:39 31° SSE 18:35:42 43° ESE 18:41:01 10° NE
Geosat 4.3 18:34:36 26° S 18:37:23 64° WSW 18:42:23 10° NNW
SAR-Lupe-2 3.7 18:35:56 10° NNE 18:39:18 52° E 18:39:18 52° E
Cosmos 2322 3.6 18:33:56 10° SSW 18:39:38 85° ESE 18:45:23 10° NNE
Cosmos 1461 3.5 18:35:16 10° NW 18:39:56 59° WSW 18:41:51 33° S
Cosmos 1455 2.1 18:37:12 10° N 18:41:03 83° E 18:41:50 55° SSE
Cosmos 1703 3.2 18:40:05 35° SSW 18:41:36 80° W 18:45:29 10° N
NOSS 3-3 (A) 3.7 18:37:05 10° SSW 18:42:39 69° ESE 18:48:47 10° NE
NOSS 3-3 (C) 3.7 18:37:11 10° SSW 18:42:46 68° ESE 18:48:54 10° NE
Cosmos 1709 Rocket 3.9 18:39:37 25° S 18:43:24 70° E 18:49:42 10° N
Cosmos 1844 4.4 18:40:39 10° N 18:46:01 39° ENE 18:47:38 32° E
MetOp-B 4.1 18:46:28 34° S 18:48:55 84° WSW 18:54:17 10° NNW
Cosmos 1812 Rocket 4.1 18:44:51 10° NNW 18:49:04 53° W 18:50:59 29° SSW
Cosmos 2237 Rocket 3.9 18:51:25 17° ENE 18:51:25 17° ENE 18:53:38 10° NE
Delta 2 Rocket 3.3 18:47:38 10° WNW 18:50:57 52° N 18:51:17 49° NNE
Cosmos 2333 4.3 18:45:51 10° SSW 18:51:27 78° WNW 18:57:09 10° NNE
Cosmos 2219 Rocket 2.0 18:49:04 28° S 18:52:03 70° ESE 18:57:37 10° NNE
Nadezhda 1 Rocket 4.2 18:46:09 10° N 18:52:32 73° W 18:56:22 25° S
Atlas Centaur 2 2.4 18:46:51 10° W 18:52:44 72° S 18:56:13 32° ESE
Terra 3.2 18:52:47 23° ENE 18:53:01 23° ENE 18:56:43 10° NNE
Cosmos 2360 Rocket 3.7 18:48:58 10° SW 18:54:04 35° WNW 18:59:14 10° N
Cosmos 2263 Rocket 4.0 18:50:03 10° NW 18:54:20 23° WSW 18:58:34 10° SSW
CARTOSAT-1 4.3 18:55:50 37° ENE 18:55:50 37° ENE 18:59:49 10° N
Cosmos 1538 Rocket 4.0 18:54:45 44° SSE 18:56:17 64° ESE 19:01:34 10° NNE
IGS 5A 3.3 18:59:07 68° S 18:59:37 85° WSW 19:03:47 10° NNW
Cosmos 2333 Rocket 2.1 18:57:31 20° SSW 19:01:33 88° WNW 19:07:17 10° NNE
DELTA 2 R/B (1) 3.5 18:56:19 10° WSW 19:01:54 88° SSE 19:07:31 10° ENE
Resurs 01 Rocket 3.5 19:08:07 16° SW 19:10:23 24° W 19:13:57 10° NW
ERS-1 Rocket 2.8 19:16:52 68° ESE 19:17:17 73° ENE 19:22:18 10° N
Cosmos 1315 Rocket 4.1 19:15:44 10° N 19:18:31 32° NE 19:18:31 32° NE
Cosmos-2242 3.5 19:17:41 10° NNW 19:21:56 53° W 19:22:15 52° WSW
USA 215 4.1 19:15:56 10° NNE 19:22:12 50° NW 19:28:26 10° WSW
Cosmos 2221 4.2 19:23:09 10° NNE 19:25:38 24° NE 19:25:38 24° NE
Cosmos 2278 Rocket 3.7 19:26:28 10° N 19:30:52 23° ENE 19:31:19 22° ENE
SPOT 5 2.8 19:34:42 86° WSW 19:34:45 86° WSW 19:39:42 10° NNW
Cosmos 1844 Rocket 2.9 19:30:33 10° NNW 19:36:00 58° WSW 19:36:36 54° SW
H-2A ROCKET BODY 4.2 19:33:33 10° W 19:40:06 54° S 20:15:42 10° ESE
Cosmos 1400 Rocket 4.5 19:39:00 10° NNW 19:42:04 27° W 19:42:04 27° W
Meteor 2-17 Rocket 4.4 19:43:25 65° E 19:43:25 65° E 19:49:19 10° NNE
Cosmos 2074 Rocket 3.8 19:44:35 74° SSE 19:45:10 84° E 19:51:24 10° N
In-Cosmos 22 Rocket 4.4 19:48:10 57° NE 19:48:10 57° NE 19:52:35 10° NNE
OAO 3 Rocket 4.0 19:42:45 10° WNW 19:46:11 44° W 19:46:11 44° W
Cosmos 2181 Rocket 4.1 19:42:12 10° NNW 19:48:27 69° W 19:49:24 60° SW
Cosmos 1680 Rocket 4.1 19:55:25 50° NE 19:55:25 50° NE 19:59:24 10° NNE
VEP-3 3.8 19:59:21 10° WSW 20:18:55 15° ESE 20:24:16 10° ESE
BREEZE-M R/B 4.0 19:58:20 10° NW 20:06:41 58° NNE 20:06:42 58° NNE
Cosmos 2344 3.3 20:06:07 68° S 20:07:04 78° ESE 20:14:38 10° NNE
Cosmos 2327 Rocket 4.4 20:07:35 83° NE 20:07:35 83° NE 20:13:33 10° N
OAO 2 Rocket 4.1 20:05:33 10° W 20:09:33 50° WNW 20:09:33 50° WNW
Cosmos 1980 4.0 20:15:08 62° WNW 20:15:08 62° WNW 20:20:36 10° NNE
ATLAS CENTAUR R/B 3.8 20:21:17 10° NNW 20:22:16 17° NNW 20:22:16 17° NNW
Terra 3.5 20:31:40 26° WNW 20:31:40 26° WNW 20:34:41 10° NW
Cosmos 2237 Rocket 3.0 20:33:12 46° WNW 20:33:20 46° WNW 20:38:48 10° N
Atlas Centaur 2 3.8 20:35:30 10° W 20:38:47 31° WSW 20:38:47 31° WSW
ATLAS 2AS CENTAUR R/B 3.0 20:51:48 10° NNW 20:59:00 57° NE 20:59:00 57° NE
Cosmos 2218 Rocket 4.4 21:06:08 58° NNE 21:06:08 58° NNE 21:11:11 10° N
Cosmos 2366 rocket 4.4 21:11:55 59° NNE 21:11:55 59° NNE 21:17:00 10° N
Cosmos 2278 Rocket 3.6 21:09:46 10° NW 21:13:09 31° WNW 21:13:09 31° WNW
SL-16 R/B 3.1 21:18:56 45° NNW 21:18:56 45° NNW 21:23:09 10° NNE
Cosmos 1943 Rocket 3.9 21:18:54 10° N 21:23:11 25° NE 21:23:11 25° NE
USA 267 3.6 21:34:05 56° WNW 21:34:05 56° WNW 21:39:09 10° NW
COSMOS 2455 3.7 21:50:06 10° NNW 21:55:19 43° NE 21:55:19 43° NE
Cosmos 1727 Rocket 4.5 21:58:30 10° N 22:03:21 55° NNW 22:03:21 55° NNW
Cosmos 2369 Rocket 3.3 22:02:38 10° N 22:07:04 38° NE 22:07:04 38° NE
Resurs 1-4 Rocket 4.3 22:05:25 10° NE 22:07:40 17° ENE 22:07:40 17° ENE
SeaSat 1 4.3 22:09:19 10° NE 22:11:34 24° ENE 22:11:34 24° ENE
DELTA 2 R/B (1) 4.5 22:36:22 46° NNE 22:36:22 46° NNE 22:41:13 10° E
CZ-2D R/B 3.5 22:33:50 10° NNE 22:37:33 32° ENE 22:37:33 32° ENE
Lacrosse 5 3.6 22:48:42 25° ENE 22:48:42 25° ENE 22:51:09 10° NE
Cosmos 1943 4.3 22:56:06 37° NW 22:56:06 37° NW 23:00:34 10° N
NPP 4.5 22:52:28 10° NNE 22:56:49 44° ENE 22:56:49 44° ENE
Cosmos 1943 Rocket 3.8 23:02:06 10° NW 23:04:40 24° NW 23:04:40 24° NW
Lacrosse 5 rocket 3.7 23:04:30 10° NNW 23:06:18 19° NNE 23:06:18 19° NNE
Cosmos 2123 Rocket 4.3 23:10:12 10° NNW 23:15:28 55° WNW 23:15:28 55° WNW
Cosmos 2251 Rocket 4.0 23:17:32 54° ENE 23:17:32 54° ENE 23:21:56 10° NNE
Iridium 4 Rocket 4.1 23:28:48 56° WNW 23:28:48 56° WNW 23:33:55 10° N
Cosmos 1153 Rocket 4.3 23:28:18 84° SW 23:28:28 85° W 23:34:43 10° N
Cosmos 1459 Rocket 4.3 23:30:42 49° SE 23:31:40 54° E 23:37:34 10° NNE
SL-16 R/B 2.4 23:31:34 76° SSE 23:32:06 90° SSE 23:38:23 10° NNW
Cosmos 1605 Rocket 4.5 23:34:31 46° WNW 23:34:31 46° WNW 23:40:26 10° N
CZ-4B R/B 3.5 23:32:30 10° NNE 23:37:13 75° NNE 23:37:13 75° NNE
Cosmos 292 Rocket 4.2 23:35:17 10° NNW 23:39:09 58° N 23:39:09 58° N
CZ-4C R/B 3.0 23:34:09 10° NNW 23:41:53 77° WSW 23:45:19 40° SSE
Cosmos 1933 Rocket 4.3 23:43:16 46° N 23:43:16 46° N 23:46:24 10° N
BREEZE-M TANK 3.8 23:47:12 31° N 23:47:12 31° N 23:49:19 10° NE
Resurs 1-4 Rocket 2.7 23:44:00 10° N 23:48:44 43° WNW 23:48:44 43° WNW
SeaSat 1 4.1 23:47:28 10° N 23:51:11 22° NW 23:51:20 22° WNW
Cosmos 2369 Rocket 4.1 23:47:23 10° NW 23:48:49 15° WNW 23:48:49 15° WNW
IRS-P3 4.3 23:49:06 10° NNE 23:54:23 61° ESE 23:55:14 54° SE
